• In Russia
  • List of Countries
  • For 7 days
  • Water Temperature
  • Satellite Maps
  • Weather Map
  • Weather Widgets
  • user-avatar
    Login

    Hourly Weather Koma

    Today, 26 September, Wednesday

    Time Temperature Precipitation Wind Pressure Humidity
    00:00 +11°C° 0 mm 1 mps 716 mmHg 67%
    01:00 +11°C° 0 mm 1 mps 716 mmHg 68%
    02:00 +10°C° 0 mm 1 mps 716 mmHg 70%
    03:00 +10°C° 0 mm 1 mps 716 mmHg 71%
    04:00 +10°C° 0 mm 1 mps 716 mmHg 73%
    05:00 +10°C° 0 mm 1 mps 716 mmHg 74%
    06:00 +10°C° 0 mm 1 mps 716 mmHg 74%
    07:00 +11°C° 0 mm 1 mps 716 mmHg 69%
    08:00 +12°C° 0 mm 2 mps 716 mmHg 68%
    09:00 +14°C° 0 mm 2 mps 716 mmHg 66%
    10:00 +15°C° 0 mm 2 mps 716 mmHg 64%
    11:00 +15°C° 0.3 mm 2 mps 716 mmHg 68%
    12:00 +13°C° 0.3 mm 3 mps 716 mmHg 73%
    13:00 +13°C° 0.3 mm 3 mps 716 mmHg 77%
    14:00 +12°C° 1 mm 3 mps 715 mmHg 81%
    15:00 +10°C° 1 mm 3 mps 715 mmHg 86%
    16:00 +9°C° 1 mm 2 mps 715 mmHg 91%
    17:00 +9°C° 0.3 mm 2 mps 715 mmHg 91%
    18:00 +8°C° 0.3 mm 2 mps 715 mmHg 91%
    19:00 +8°C° 0.3 mm 2 mps 716 mmHg 92%
    20:00 +7°C° 0.5 mm 2 mps 716 mmHg 92%
    21:00 +7°C° 0.5 mm 2 mps 716 mmHg 92%
    22:00 +7°C° 0.5 mm 2 mps 716 mmHg 92%
    23:00 +7°C° 0.3 mm 2 mps 716 mmHg 93%

    Tomorrow, 27 September, Thursday

    Time Temperature Precipitation Wind Pressure Humidity
    00:00 +7°C° 0.3 mm 2 mps 716 mmHg 93%
    01:00 +7°C° 0.3 mm 3 mps 716 mmHg 93%
    02:00 +7°C° 0.1 mm 3 mps 716 mmHg 93%
    03:00 +7°C° 0.1 mm 3 mps 716 mmHg 92%
    04:00 +5°C° 0.1 mm 3 mps 717 mmHg 92%
    05:00 +5°C° 0 mm 4 mps 717 mmHg 91%
    06:00 +5°C° 0 mm 4 mps 717 mmHg 90%
    07:00 +5°C° 0 mm 4 mps 717 mmHg 89%
    08:00 +5°C° 0.1 mm 5 mps 717 mmHg 85%
    09:00 +5°C° 0.1 mm 5 mps 717 mmHg 81%
    10:00 +5°C° 0.1 mm 5 mps 717 mmHg 77%
    11:00 +6°C° 0.1 mm 5 mps 717 mmHg 73%
    12:00 +6°C° 0.1 mm 5 mps 717 mmHg 70%
    13:00 +7°C° 0.1 mm 5 mps 717 mmHg 66%
    14:00 +6°C° 0 mm 5 mps 717 mmHg 66%
    15:00 +6°C° 0 mm 5 mps 717 mmHg 66%
    16:00 +6°C° 0 mm 5 mps 717 mmHg 66%
    17:00 +5°C° 0 mm 4 mps 717 mmHg 70%
    18:00 +5°C° 0 mm 4 mps 717 mmHg 74%
    19:00 +4°C° 0 mm 3 mps 717 mmHg 78%
    20:00 +3°C° 0 mm 3 mps 717 mmHg 81%
    21:00 +3°C° 0 mm 3 mps 717 mmHg 84%
    22:00 +3°C° 0 mm 2 mps 716 mmHg 87%
    23:00 +3°C° 0 mm 2 mps 716 mmHg 89%

    Day after tomorrow, 28 September, Friday

    Time Temperature Precipitation Wind Pressure Humidity
    00:00 +2°C° 0 mm 2 mps 716 mmHg 91%
    01:00 +2°C° 0 mm 2 mps 715 mmHg 93%
    02:00 +2°C° 0 mm 2 mps 715 mmHg 93%
    03:00 +2°C° 0 mm 2 mps 715 mmHg 93%
    04:00 +2°C° 0 mm 2 mps 715 mmHg 93%
    05:00 +1°C° 0 mm 3 mps 715 mmHg 90%
    06:00 +2°C° 0 mm 3 mps 715 mmHg 87%
    07:00 +1°C° 0 mm 4 mps 715 mmHg 84%
    08:00 +3°C° 0.1 mm 4 mps 715 mmHg 80%
    09:00 +3°C° 0.1 mm 5 mps 716 mmHg 76%
    10:00 +5°C° 0.1 mm 5 mps 716 mmHg 71%
    11:00 +5°C° 0.4 mm 5 mps 716 mmHg 72%
    12:00 +5°C° 0.4 mm 5 mps 716 mmHg 74%
    13:00 +5°C° 0.4 mm 6 mps 717 mmHg 75%
    14:00 +5°C° 0.6 mm 5 mps 717 mmHg 78%
    15:00 +5°C° 0.6 mm 5 mps 718 mmHg 80%
    16:00 +5°C° 0.6 mm 4 mps 718 mmHg 83%
    17:00 +4°C° 0.2 mm 4 mps 719 mmHg 86%
    18:00 +4°C° 0.2 mm 3 mps 719 mmHg 88%
    19:00 +3°C° 0.2 mm 3 mps 720 mmHg 91%
    20:00 +4°C° 0 mm 2 mps 720 mmHg 92%
    21:00 +4°C° 0 mm 2 mps 721 mmHg 93%
    22:00 +3°C° 0 mm 2 mps 721 mmHg 94%
    23:00 +3°C° 0 mm 2 mps 721 mmHg 95%

    29 September, Saturday

    Time Temperature Precipitation Wind Pressure Humidity
    00:00 +3°C° 0 mm 2 mps 721 mmHg 96%
    01:00 +3°C° 0 mm 2 mps 721 mmHg 96%
    02:00 +3°C° 0.3 mm 2 mps 721 mmHg 95%
    03:00 +4°C° 0.3 mm 2 mps 722 mmHg 95%
    04:00 +4°C° 0.3 mm 2 mps 722 mmHg 94%
    05:00 +4°C° 0.2 mm 2 mps 722 mmHg 94%
    06:00 +4°C° 0.2 mm 2 mps 723 mmHg 93%
    07:00 +5°C° 0.2 mm 1 mps 723 mmHg 93%
    08:00 +7°C° 0 mm 1 mps 723 mmHg 88%
    09:00 +8°C° 0 mm 1 mps 724 mmHg 84%
    10:00 +10°C° 0 mm 1 mps 724 mmHg 79%
    11:00 +11°C° 0 mm 1 mps 724 mmHg 77%
    12:00 +12°C° 0 mm 1 mps 723 mmHg 76%
    13:00 +13°C° 0 mm 1 mps 723 mmHg 74%
    14:00 +13°C° 0 mm 1 mps 723 mmHg 75%
    15:00 +13°C° 0 mm 1 mps 723 mmHg 75%
    16:00 +12°C° 0 mm 0 mps 723 mmHg 76%
    17:00 +10°C° 0 mm 0 mps 723 mmHg 81%
    18:00 +9°C° 0 mm 1 mps 723 mmHg 86%
    19:00 +8°C° 0 mm 1 mps 723 mmHg 92%
    20:00 +7°C° 0 mm 1 mps 724 mmHg 92%
    21:00 +7°C° 0 mm 1 mps 724 mmHg 92%
    22:00 +7°C° 0 mm 1 mps 724 mmHg 93%
    23:00 +6°C° 0 mm 1 mps 724 mmHg 93%

    30 September, Sunday

    Time Temperature Precipitation Wind Pressure Humidity
    00:00 +6°C° 0 mm 1 mps 724 mmHg 93%
    01:00 +6°C° 0 mm 1 mps 724 mmHg 93%
    02:00 +5°C° 0 mm 1 mps 724 mmHg 93%
    03:00 +5°C° 0 mm 1 mps 724 mmHg 93%
    04:00 +5°C° 0 mm 1 mps 724 mmHg 94%
    05:00 +5°C° 0 mm 1 mps 724 mmHg 92%
    06:00 +6°C° 0 mm 1 mps 724 mmHg 90%
    07:00 +6°C° 0 mm 1 mps 724 mmHg 89%
    08:00 +8°C° 0 mm 1 mps 724 mmHg 81%
    09:00 +10°C° 0 mm 1 mps 724 mmHg 74%
    10:00 +13°C° 0 mm 1 mps 724 mmHg 67%
    11:00 +13°C° 0 mm 2 mps 723 mmHg 64%
    12:00 +14°C° 0 mm 2 mps 723 mmHg 61%
    13:00 +15°C° 0 mm 2 mps 723 mmHg 58%
    14:00 +13°C° 0 mm 3 mps 723 mmHg 60%
    15:00 +13°C° 0 mm 3 mps 722 mmHg 62%
    16:00 +12°C° 0 mm 3 mps 722 mmHg 64%
    17:00 +10°C° 0 mm 2 mps 723 mmHg 71%
    18:00 +8°C° 0 mm 2 mps 723 mmHg 78%
    19:00 +6°C° 0 mm 2 mps 723 mmHg 86%
    20:00 +6°C° 0 mm 2 mps 723 mmHg 87%
    21:00 +7°C° 0 mm 1 mps 723 mmHg 88%
    22:00 +6°C° 0 mm 1 mps 723 mmHg 89%
    23:00 +6°C° 0 mm 1 mps 723 mmHg 90%

    1 October, Monday

    Time Temperature Precipitation Wind Pressure Humidity
    00:00 +6°C° 0 mm 1 mps 723 mmHg 91%
    01:00 +6°C° 0 mm 1 mps 723 mmHg 92%
    02:00 +6°C° 0 mm 1 mps 723 mmHg 93%
    03:00 +6°C° 0 mm 1 mps 723 mmHg 93%
    04:00 +6°C° 0 mm 1 mps 723 mmHg 93%
    05:00 +6°C° 0 mm 1 mps 723 mmHg 91%
    06:00 +7°C° 0 mm 1 mps 723 mmHg 90%
    07:00 +7°C° 0 mm 1 mps 723 mmHg 88%
    08:00 +9°C° 0 mm 1 mps 722 mmHg 79%
    09:00 +12°C° 0 mm 1 mps 722 mmHg 70%
    10:00 +14°C° 0 mm 2 mps 722 mmHg 61%
    11:00 +15°C° 0 mm 2 mps 721 mmHg 58%
    12:00 +15°C° 0 mm 2 mps 721 mmHg 54%
    13:00 +16°C° 0 mm 2 mps 720 mmHg 51%
    14:00 +16°C° 0 mm 2 mps 720 mmHg 52%
    15:00 +16°C° 0 mm 2 mps 719 mmHg 54%
    16:00 +15°C° 0 mm 1 mps 719 mmHg 55%
    17:00 +13°C° 0 mm 1 mps 719 mmHg 61%
    18:00 +11°C° 0 mm 1 mps 719 mmHg 67%
    19:00 +9°C° 0 mm 1 mps 719 mmHg 72%
    20:00 +9°C° 0 mm 1 mps 719 mmHg 73%
    21:00 +9°C° 0 mm 1 mps 719 mmHg 73%
    22:00 +8°C° 0 mm 1 mps 718 mmHg 74%
    23:00 +8°C° 0 mm 1 mps 718 mmHg 76%
    Show more